Location: Newark
(44.6028°N, 124.0883°W)
Time: 22:02:01
(UTC+00:00)

Vanguard 1 Rocket - Pass Details

Date: 27 October 2019
Orbit: 651 x 4225 km, 34.3° (Epoch: 16 November)

Event Time Altitude Azimuth Distance (km) Brightness Sun altitude
Rises 18:47:37 0° 253° (WSW) 4,957 11.1 30.2°
Reaches altitude 10° 18:50:18 10° 249° (WSW) 4,310 10.9 30.4°
Maximum altitude 19:02:48 59° 174° (S) 3,239 11.5 31.1°
Drops below altitude 10° 19:25:23 10° 103° (ESE) 7,274 12.4 32.0°
Sets 19:31:39 0° 101° (E) 8,450 12.5 32.1°
